This demonstration page uses our WeatherBlox Daily Observations layout. Learn more.

Left ArrowRight Arrow

Hourly Observations for May 16, 2021

Temp ( °F °C ) Dew Point ( °F °C ) Humidity (%) Winds ( mph kmh ) Pressure ( in mb ) Visibility ( mi km ) Precip ( " mm )
12:53 am 00:53 Cloudy 58 14.4 46 7.8 65 65 SW 3 6 30.18 1022 10 16 N/A
1:53 am 01:53 Cloudy 58 14.4 47 8.3 67 67 N N/A 30.19 1022 10 16 N/A
2:53 am 02:53 Cloudy 57 13.9 48 8.9 72 72 N N/A 30.18 1022 10 16 N/A
3:53 am 03:53 Cloudy 56 13.3 50 10 81 81 N N/A 30.19 1022 10 16 0.00 0.00
4:53 am 04:53 Cloudy 60 15.6 44 6.7 56 56 VRB 3 6 30.19 1022 10 16 0.00 0.00
5:53 am 05:53 Cloudy with Light Rain 56 13.3 49 9.4 77 77 N N/A 30.19 1022 10 16 0.00 0.00
6:53 am 06:53 Cloudy 55 12.8 51 10.6 87 87 N N/A 30.22 1023 10 16 0.00 0.00
7:53 am 07:53 Cloudy 57 13.9 53 11.7 87 87 N N/A 30.24 1024 10 16 N/A
8:53 am 08:53 Cloudy with Light Rain 60 15.6 51 10.6 72 72 N N/A 30.25 1025 10 16 0.00 0.00
9:53 am 09:53 Cloudy 62 16.7 46 7.8 56 56 ESE 6 9 30.26 1025 10 16 0.00 0.00
10:53 am 10:53 Mostly Cloudy 64 17.8 47 8.3 54 54 VRB 3 6 30.26 1025 10 16 N/A
11:53 am 11:53 Cloudy 65 18.3 45 7.2 49 49 VRB 7 11 30.25 1024 10 16 N/A
12:53 pm 12:53 Cloudy 69 20.6 46 7.8 44 44 VRB 5 7 30.23 1024 10 16 N/A
1:53 pm 13:53 Mostly Cloudy 69 20.6 47 8.3 45 45 WSW 6 9 30.21 1023 10 16 N/A
2:53 pm 14:53 Cloudy 70 21.1 47 8.3 44 44 VRB 5 7 30.20 1023 10 16 N/A
3:53 pm 15:53 Cloudy 72 22.2 48 8.9 43 43 N N/A 30.18 1022 10 16 N/A
4:53 pm 16:53 Cloudy 70 21.1 48 8.9 46 46 VRB 5 7 30.17 1022 10 16 N/A
5:53 pm 17:53 Mostly Cloudy 70 21.1 49 9.4 47 47 N N/A 30.18 1022 10 16 N/A
6:53 pm 18:53 Cloudy 69 20.6 50 10 51 51 N N/A 30.18 1022 10 16 N/A
7:53 pm 19:53 Cloudy 68 20 50 10 53 53 N N/A 30.17 1022 10 16 N/A
8:53 pm 20:53 Clear 64 17.8 52 11.1 65 65 N N/A 30.18 1022 10 16 N/A
9:53 pm 21:53 Clear 59 15 52 11.1 78 78 N N/A 30.19 1022 10 16 N/A
10:53 pm 22:53 Clear 57 13.9 52 11.1 83 83 N N/A 30.19 1023 10 16 N/A
11:53 pm 23:53 Clear 54 12.2 51 10.6 90 90 N N/A 30.19 1022 10 16 N/A

Powered by AerisWeather